GW7343 Weather Reports


time (UTC)temp
C
wind
direction
speed
KPH
gust
KPH
rain 1hr
cm
rain 24hr
cm
rain mn
cm
humidity
%
barometer
mb
20260508220010 16 144 6.4 14.5 0.00 0.00 0.00 49 1006.7
20260508215505 16 115 6.4 16.1 0.00 0.00 0.00 50 1006.7
20260508215007 16 138 4.8 16.1 0.00 0.00 0.00 50 1006.7
20260508214520 16 109 4.8 14.5 0.00 0.00 0.00 51 1006.8
20260508214011 16 132 11.3 16.1 0.00 0.00 0.00 50 1006.8
20260508213510 16 143 9.7 16.1 0.00 0.00 0.00 52 1006.8
20260508213027 16 140 4.8 22.5 0.00 0.00 0.00 51 1006.9
20260508212505 16 137 14.5 22.5 0.00 0.00 0.00 51 1006.9
20260508212004 16 100 6.4 19.3 0.00 0.00 0.00 52 1006.9
20260508211516 16 106 8.0 19.3 0.00 0.00 0.00 51 1006.9
20260508211008 16 153 11.3 19.3 0.00 0.00 0.00 51 1006.9
20260508210515 16 161 8.0 19.3 0.00 0.00 0.00 51 1007.0
20260508210028 15 141 9.7 22.5 0.00 0.00 0.00 55 1007.0
20260508205513 15 160 8.0 24.1 0.00 0.00 0.00 52 1007.1
20260508205013 15 130 14.5 25.7 0.00 0.00 0.00 52 1007.2
20260508204515 15 146 11.3 25.7 0.00 0.00 0.00 53 1007.3
20260508204006 15 140 14.5 25.7 0.00 0.00 0.00 53 1007.3
20260508203508 15 145 12.9 19.3 0.00 0.00 0.00 51 1007.5
20260508203016 15 146 11.3 22.5 0.00 0.00 0.00 52 1007.6
20260508202507 15 116 9.7 22.5 0.00 0.00 0.00 50 1007.6
20260508202012 15 115 9.7 22.5 0.00 0.00 0.00 50 1007.6
20260508201530 15 137 12.9 22.5 0.00 0.00 0.00 49 1007.7
20260508201014 15 173 11.3 24.1 0.00 0.00 0.00 48 1007.9
20260508200504 15 142 14.5 24.1 0.00 0.00 0.00 46 1007.9
20260508200015 15 153 16.1 24.1 0.00 0.00 0.00 46 1007.9
20260508195506 15 156 14.5 24.1 0.00 0.00 0.00 43 1008.1
20260508195011 15 182 9.7 24.1 0.00 0.00 0.00 43 1008.1
20260508194521 16 123 9.7 25.7 0.00 0.00 0.00 42 1008.2
20260508194008 16 163 16.1 25.7 0.00 0.00 0.00 41 1008.2
20260508193513 16 136 16.1 25.7 0.00 0.00 0.00 41 1008.3
20260508193055 16 131 9.7 17.7 0.00 0.00 0.00 42 1008.3
20260508192508 16 144 6.4 16.1 0.00 0.00 0.00 40 1008.3
20260508192008 16 163 4.8 14.5 0.00 0.00 0.00 42 1008.5
20260508191521 16 132 8.0 12.9 0.00 0.00 0.00 41 1008.4
20260508191008 16 53 1.6 19.3 0.00 0.00 0.00 40 1008.6
20260508190513 16 134 3.2 19.3 0.00 0.00 0.00 42 1008.7
20260508190034 16 126 11.3 19.3 0.00 0.00 0.00 40 1008.7
20260508185513 16 94 8.0 16.1 0.00 0.00 0.00 43 1008.7
20260508185012 16 100 1.6 19.3 0.00 0.00 0.00 42 1008.8
20260508184512 16 170 4.8 19.3 0.00 0.00 0.00 41 1008.8
20260508184006 16 115 8.0 16.1 0.00 0.00 0.00 41 1008.8
20260508183506 16 117 9.7 19.3 0.00 0.00 0.00 41 1008.9
20260508183021 16 180 8.0 22.5 0.00 0.00 0.00 40 1009.0
20260508182509 16 153 9.7 22.5 0.00 0.00 0.00 39 1009.0
20260508182015 17 130 11.3 19.3 0.00 0.00 0.00 34 1009.0
20260508181507 17 202 4.8 14.5 0.00 0.00 0.00 35 1009.1
20260508181006 16 243 6.4 14.5 0.00 0.00 0.00 34 1009.2
20260508180507 16 166 4.8 14.5 0.00 0.00 0.00 34 1009.2
20260508180019 16 286 3.2 12.9 0.00 0.00 0.00 31 1009.3
20260508175508 16 247 6.4 12.9 0.00 0.00 0.00 33 1009.4
20260508175013 16 273 6.4 9.7 0.00 0.00 0.00 38 1009.5
20260508174534 15 26 0.0 16.1 0.00 0.00 0.00 34 1009.6
20260508174011 15 360 4.8 16.1 0.00 0.00 0.00 37 1009.7
20260508173502 16 230 3.2 17.7 0.00 0.00 0.00 33 1009.8
20260508173009 16 205 11.3 17.7 0.00 0.00 0.00 35 1010.0
20260508172510 16 169 8.0 16.1 0.00 0.00 0.00 34 1010.0
20260508172009 16 258 8.0 16.1 0.00 0.00 0.00 35 1010.1
20260508171519 16 327 6.4 12.9 0.00 0.00 0.00 34 1010.2
20260508171014 16 221 3.2 24.1 0.00 0.00 0.00 37 1010.2
20260508170508 16 252 6.4 24.1 0.00 0.00 0.00 34 1010.3
20260508170025 16 274 12.9 24.1 0.00 0.00 0.00 35 1010.4
20260508165503 15 221 9.7 20.9 0.00 0.00 0.00 36 1010.4
20260508165004 15 274 1.6 12.9 0.00 0.00 0.00 40 1010.5
20260508164514 15 196 3.2 20.9 0.00 0.00 0.00 37 1010.6
20260508164007 15 240 11.3 22.5 0.00 0.00 0.00 39 1010.8
20260508163508 15 215 8.0 22.5 0.00 0.00 0.00 37 1010.9
20260508163029 14 267 6.4 14.5 0.00 0.00 0.00 40 1010.8
20260508162509 14 176 6.4 14.5 0.00 0.00 0.00 42 1010.8
20260508162014 13 242 8.0 14.5 0.00 0.00 0.00 42 1010.7
20260508161508 13 91 1.6 11.3 0.00 0.00 0.00 40 1010.8
20260508161006 13 200 6.4 14.5 0.00 0.00 0.00 41 1010.9
20260508160510 13 290 3.2 14.5 0.00 0.00 0.00 40 1010.9
20260508160015 13 186 4.8 14.5 0.00 0.00 0.00 42 1010.9
20260508155510 13 329 6.4 14.5 0.00 0.00 0.00 43 1010.9
20260508155013 13 48 3.2 16.1 0.00 0.00 0.00 42 1011.0
20260508154523 13 271 6.4 16.1 0.00 0.00 0.00 42 1011.1
20260508154013 13 198 6.4 12.9 0.00 0.00 0.00 46 1011.0
20260508153504 12 254 1.6 12.9 0.00 0.00 0.00 44 1011.0
20260508153012 12 297 4.8 8.0 0.00 0.00 0.00 46 1011.1
20260508152508 12 150 3.2 11.3 0.00 0.00 0.00 44 1011.1
20260508152016 12 151 3.2 11.3 0.00 0.00 0.00 44 1011.1
20260508151535 12 178 3.2 8.0 0.00 0.00 0.00 49 1011.2
20260508151012 12 116 0.0 6.4 0.00 0.00 0.00 50 1011.3
20260508150517 12 157 3.2 8.0 0.00 0.00 0.00 48 1011.4
20260508150030 11 177 4.8 8.0 0.00 0.00 0.00 47 1011.3
20260508145506 11 173 3.2 6.4 0.00 0.00 0.00 50 1011.4
20260508145003 11 277 4.8 6.4 0.00 0.00 0.00 52 1011.4
20260508144515 11 282 1.6 6.4 0.00 0.00 0.00 50 1011.5
20260508144007 11 217 1.6 4.8 0.00 0.00 0.00 52 1011.5
20260508143511 11 287 1.6 4.8 0.00 0.00 0.00 52 1011.5
20260508143026 11 32 1.6 8.0 0.00 0.00 0.00 52 1011.6
20260508142512 11 202 3.2 9.7 0.00 0.00 0.00 55 1011.6
20260508142014 11 196 4.8 9.7 0.00 0.00 0.00 53 1011.6
20260508141512 11 227 4.8 9.7 0.00 0.00 0.00 57 1011.7
20260508141006 11 161 3.2 12.9 0.00 0.00 0.00 57 1011.8
20260508140510 11 182 4.8 11.3 0.00 0.00 0.00 55 1011.8
20260508140019 11 319 1.6 6.4 0.00 0.00 0.00 56 1011.8
20260508135514 11 331 3.2 6.4 0.00 0.00 0.00 55 1011.8
20260508135013 11 258 3.2 8.0 0.00 0.00 0.00 56 1011.7
20260508134527 10 204 3.2 8.0 0.00 0.00 0.00 59 1011.7
20260508134010 10 253 3.2 6.4 0.00 0.00 0.00 58 1011.7
20260508133504 10 211 4.8 6.4 0.00 0.00 0.00 61 1011.8
20260508133012 10 277 3.2 6.4 0.00 0.00 0.00 61 1011.8
20260508132506 10 211 3.2 6.4 0.00 0.00 0.00 61 1011.7
20260508132015 10 198 3.2 8.0 0.00 0.00 0.00 63 1011.8
20260508131525 10 175 3.2 8.0 0.00 0.00 0.00 62 1011.8
20260508131007 10 177 1.6 8.0 0.00 0.00 0.00 60 1011.8
20260508130510 9 233 3.2 8.0 0.00 0.00 0.00 61 1011.8
20260508130029 9 209 3.2 8.0 0.00 0.00 0.00 62 1011.7
20260508125504 9 150 3.2 8.0 0.00 0.00 0.00 62 1011.7
20260508125010 9 172 3.2 8.0 0.00 0.00 0.00 63 1011.7
20260508124523 8 146 1.6 6.4 0.00 0.00 0.00 65 1011.7
20260508124010 8 192 3.2 8.0 0.00 0.00 0.00 64 1011.7
20260508123512 8 186 1.6 8.0 0.00 0.00 0.00 65 1011.7
20260508123024 8 219 1.6 4.8 0.00 0.00 0.00 68 1011.7
20260508122509 7 206 3.2 6.4 0.00 0.00 0.00 70 1011.7
20260508122014 7 146 1.6 6.4 0.00 0.00 0.00 70 1011.6
20260508121518 7 184 1.6 3.2 0.00 0.00 0.00 74 1011.5
20260508121005 6 186 1.6 3.2 0.00 0.00 0.00 76 1011.4
20260508120507 6 188 1.6 3.2 0.00 0.00 0.00 79 1011.4
20260508120022 5 179 1.6 3.2 0.00 0.00 0.00 80 1011.3
20260508115509 5 133 1.6 3.2 0.00 0.00 0.00 82 1011.3
20260508115010 4 28 0.0 3.2 0.00 0.00 0.00 85 1011.2
20260508114528 4 28 0.0 3.2 0.00 0.00 0.00 87 1011.2
20260508114011 3 28 0.0 3.2 0.00 0.00 0.00 88 1011.2
20260508113515 3 28 0.0 3.2 0.00 0.00 0.00 88 1011.2
20260508113014 3 28 0.0 0.0 0.00 0.00 0.00 87 1011.2
20260508112509 2 28 0.0 3.2 0.00 0.00 0.00 87 1011.2
20260508112011 2 28 0.0 3.2 0.00 0.00 0.00 87 1011.3
20260508111526 2 28 0.0 3.2 0.00 0.00 0.00 86 1011.2
20260508111010 2 27 0.0 3.2 0.00 0.00 0.00 86 1011.1
20260508110512 2 28 0.0 3.2 0.00 0.00 0.00 86 1011.1
20260508110032 2 28 0.0 3.2 0.00 0.00 0.00 86 1011.0
20260508105506 2 28 0.0 3.2 0.00 0.00 0.00 86 1011.1
20260508105012 2 28 0.0 0.0 0.00 0.00 0.00 86 1011.0
20260508104521 2 28 0.0 3.2 0.00 0.00 0.00 85 1011.0
20260508104008 2 28 0.0 3.2 0.00 0.00 0.00 84 1011.1
20260508103511 2 28 0.0 3.2 0.00 0.00 0.00 84 1011.1
20260508103028 2 28 0.0 3.2 0.00 0.00 0.00 84 1011.0
20260508102508 2 28 0.0 1.6 0.00 0.00 0.00 83 1010.9
20260508102015 2 28 0.0 0.0 0.00 0.00 0.00 82 1011.0
20260508101528 2 28 0.0 0.0 0.00 0.00 0.00 82 1011.0
20260508101006 3 28 0.0 0.0 0.00 0.00 0.00 82 1011.1
20260508100507 3 28 0.0 3.2 0.00 0.00 0.00 81 1011.1
20260508100024 3 28 0.0 3.2 0.00 0.00 0.00 82 1011.1
20260508095507 3 28 0.0 3.2 0.00 0.00 0.00 82 1011.0
20260508095013 3 28 0.0 0.0 0.00 0.00 0.00 80 1011.1
20260508094530 3 28 0.0 0.0 0.00 0.00 0.00 79 1011.1
20260508094009 3 28 0.0 0.0 0.00 0.00 0.00 77 1011.1
20260508093516 3 28 0.0 3.2 0.00 0.00 0.00 77 1011.2
20260508093015 4 28 0.0 3.2 0.00 0.00 0.00 77 1011.3
20260508092509 4 28 0.0 3.2 0.00 0.00 0.00 77 1011.3
20260508092008 4 28 0.0 3.2 0.00 0.00 0.00 77 1011.3
20260508091509 5 28 1.6 3.2 0.00 0.00 0.00 76 1011.3
20260508091005 5 28 0.0 3.2 0.00 0.00 0.00 75 1011.3
20260508090504 5 28 0.0 3.2 0.00 0.00 0.00 73 1011.3
20260508090015 5 28 0.0 3.2 0.00 0.00 0.00 73 1011.3
20260508085506 5 28 0.0 3.2 0.00 0.00 0.00 73 1011.2
20260508085012 5 28 0.0 3.2 0.00 0.00 0.00 73 1011.3
20260508084522 6 28 0.0 3.2 0.00 0.00 0.00 73 1011.3
20260508084004 6 28 0.0 4.8 0.00 0.00 0.00 72 1011.2
20260508083504 6 28 3.2 4.8 0.00 0.00 0.00 72 1011.3
20260508083007 6 352 3.2 4.8 0.00 0.00 0.00 73 1011.4
20260508082504 6 24 3.2 4.8 0.00 0.00 0.00 72 1011.4
20260508082007 6 335 1.6 3.2 0.00 0.00 0.00 73 1011.3
20260508081516 5 61 0.0 3.2 0.00 0.00 0.00 73 1011.2
20260508081005 5 61 0.0 3.2 0.00 0.00 0.00 72 1011.1
20260508080511 5 50 0.0 1.6 0.00 0.00 0.00 72 1011.1
20260508080022 5 48 1.6 1.6 0.00 0.00 0.00 72 1011.2
20260508075505 6 36 0.0 3.2 0.00 0.00 0.00 70 1011.2
20260508075005 6 36 0.0 3.2 0.00 0.00 0.00 70 1011.2
20260508074506 6 36 0.0 3.2 0.00 0.00 0.00 70 1011.1
20260508074006 6 36 0.0 3.2 0.00 0.00 0.00 69 1011.1
20260508073506 6 36 0.0 3.2 0.00 0.00 0.00 69 1011.1
20260508073021 6 36 1.6 3.2 0.00 0.00 0.00 69 1011.1
20260508072507 6 35 0.0 4.8 0.00 0.00 0.00 69 1011.2
20260508072012 6 35 3.2 4.8 0.00 0.00 0.00 69 1011.3
20260508071504 6 17 1.6 6.4 0.00 0.00 0.00 69 1011.4
20260508071005 6 352 3.2 6.4 0.00 0.00 0.00 69 1011.5
20260508070507 6 34 3.2 6.4 0.00 0.00 0.00 68 1011.3
20260508070014 6 54 1.6 3.2 0.00 0.00 0.00 68 1011.2
20260508065508 6 42 0.0 4.8 0.00 0.00 0.00 68 1011.2
20260508065006 6 38 1.6 8.0 0.00 0.00 0.00 67 1011.3
20260508064531 7 28 3.2 8.0 0.00 0.00 0.00 67 1011.4
20260508064008 7 10 4.8 9.7 0.00 0.00 0.00 66 1011.5
20260508063503 7 38 4.8 12.9 0.00 0.00 0.00 66 1011.4
20260508063008 7 53 6.4 14.5 0.00 0.00 0.00 66 1011.3
20260508062509 7 21 8.0 14.5 0.00 0.00 0.00 66 1011.7
20260508062006 7 11 4.8 6.4 0.00 0.00 0.00 66 1011.5
20260508061518 7 64 1.6 3.2 0.00 0.00 0.00 65 1011.2
20260508061009 7 76 0.0 4.8 0.00 0.00 0.00 65 1011.1
20260508060510 7 70 0.0 17.7 0.00 0.00 0.00 65 1011.3
20260508060028 7 49 6.4 17.7 0.00 0.00 0.00 64 1011.5
20260508055502 7 335 9.7 16.1 0.00 0.00 0.00 72 1011.7
20260508055002 7 341 3.2 4.8 0.00 0.00 0.00 72 1011.7
20260508054512 7 264 0.0 3.2 0.00 0.00 0.00 72 1011.5
20260508054006 7 264 0.0 3.2 0.00 0.00 0.00 71 1011.4
20260508053508 8 256 0.0 3.2 0.00 0.00 0.00 71 1011.5
20260508053025 8 256 1.6 4.8 0.00 0.00 0.00 70 1011.5
20260508052510 8 254 0.0 8.0 0.00 0.00 0.00 69 1011.5
20260508052020 8 219 1.6 9.7 0.00 0.00 0.00 69 1011.5
20260508051504 8 263 3.2 11.3 0.00 0.00 0.00 68 1011.7
20260508051003 8 250 4.8 12.9 0.00 0.00 0.00 68 1011.8
20260508050507 8 242 6.4 14.5 0.00 0.00 0.00 67 1011.9
20260508050015 8 211 8.0 14.5 0.00 0.00 0.00 66 1011.9
20260508045506 8 246 4.8 14.5 0.00 0.00 0.00 65 1011.7
20260508045007 8 251 8.0 19.3 0.00 0.00 0.00 64 1011.6
20260508044526 9 255 11.3 19.3 0.00 0.00 0.00 62 1011.7
20260508044010 8 255 8.0 16.1 0.00 0.00 0.00 60 1011.6
20260508043502 9 275 3.2 16.1 0.00 0.00 0.00 58 1011.6
20260508043007 8 229 9.7 16.1 0.00 0.00 0.00 56 1011.5
20260508042503 8 151 3.2 6.4 0.00 0.00 0.00 55 1011.2
20260508042008 8 22 0.0 1.6 0.00 0.00 0.00 54 1011.5
20260508041520 8 22 0.0 4.8 0.00 0.00 0.00 53 1011.4
20260508041009 8 22 1.6 4.8 0.00 0.00 0.00 54 1011.4
20260508040512 8 9 1.6 3.2 0.00 0.00 0.00 55 1011.4
20260508040028 8 41 1.6 3.2 0.00 0.00 0.00 54 1011.3
20260508035503 9 148 0.0 1.6 0.00 0.00 0.00 54 1011.2
20260508035004 9 148 1.6 3.2 0.00 0.00 0.00 51 1011.2
20260508034521 9 148 1.6 3.2 0.00 0.00 0.00 51 1011.3
20260508034006 9 150 3.2 3.2 0.00 0.00 0.00 51 1011.3
20260508033506 9 336 0.0 3.2 0.00 0.00 0.00 51 1011.4
20260508033030 10 336 0.0 3.2 0.00 0.00 0.00 51 1011.2
20260508032509 10 336 0.0 3.2 0.00 0.00 0.00 50 1011.4
20260508032014 10 336 0.0 3.2 0.00 0.00 0.00 48 1011.5
20260508031508 10 346 0.0 4.8 0.00 0.00 0.00 48 1011.5
20260508031003 10 346 0.0 6.4 0.00 0.00 0.00 47 1011.4
20260508030506 10 306 3.2 8.0 0.00 0.00 0.00 47 1011.4
20260508030018 10 300 3.2 8.0 0.00 0.00 0.00 46 1011.5
20260508025508 10 304 3.2 8.0 0.00 0.00 0.00 46 1011.5
20260508025013 10 350 3.2 6.4 0.00 0.00 0.00 45 1011.5
20260508024526 10 5 3.2 4.8 0.00 0.00 0.00 45 1011.4
20260508024008 10 344 3.2 9.7 0.00 0.00 0.00 44 1011.4
20260508023504 10 325 3.2 9.7 0.00 0.00 0.00 44 1011.4
20260508023009 10 350 4.8 8.0 0.00 0.00 0.00 44 1011.4
20260508022510 10 323 1.6 6.4 0.00 0.00 0.00 44 1011.4
20260508022008 11 260 3.2 6.4 0.00 0.00 0.00 44 1011.4
20260508021527 11 277 1.6 9.7 0.00 0.00 0.00 44 1011.4
20260508021014 11 288 0.0 11.3 0.00 0.00 0.00 45 1011.4
20260508020511 11 267 3.2 9.7 0.00 0.00 0.00 44 1011.5
20260508020028 11 269 4.8 12.9 0.00 0.00 0.00 43 1011.4
20260508015507 11 274 6.4 16.1 0.00 0.00 0.00 42 1011.3
20260508015006 11 271 6.4 16.1 0.00 0.00 0.00 43 1011.3
20260508014516 11 258 4.8 16.1 0.00 0.00 0.00 43 1011.2
20260508014007 11 297 9.7 16.1 0.00 0.00 0.00 42 1011.1
20260508013506 11 262 6.4 24.1 0.00 0.00 0.00 43 1011.2
20260508013032 11 272 6.4 27.4 0.00 0.00 0.00 43 1011.2
20260508012508 11 261 8.0 27.4 0.00 0.00 0.00 43 1011.1
20260508012009 11 259 14.5 27.4 0.00 0.00 0.00 42 1011.1
20260508011531 11 251 4.8 11.3 0.00 0.00 0.00 42 1010.8
20260508011003 11 265 4.8 9.7 0.00 0.00 0.00 42 1010.8
20260508010506 11 244 3.2 9.7 0.00 0.00 0.00 42 1010.7
20260508010032 11 299 3.2 6.4 0.00 0.00 0.00 42 1010.7
20260508005508 11 329 3.2 9.7 0.00 0.00 0.00 42 1010.6
20260508005011 11 268 1.6 11.3 0.00 0.00 0.00 41 1010.6
20260508004527 11 267 4.8 11.3 0.00 0.00 0.00 41 1010.6
20260508004016 11 248 4.8 11.3 0.00 0.00 0.00 40 1010.4
20260508003514 11 263 1.6 11.3 0.00 0.00 0.00 41 1010.4
20260508003012 11 273 3.2 9.7 0.00 0.00 0.00 40 1010.4
20260508002509 11 280 4.8 9.7 0.00 0.00 0.00 40 1010.4
20260508002007 11 277 3.2 11.3 0.00 0.00 0.00 40 1010.5
20260508001519 11 269 4.8 12.9 0.00 0.00 0.00 39 1010.4
20260508001009 11 271 6.4 16.1 0.00 0.00 0.00 39 1010.4
20260508000510 11 344 6.4 17.7 0.00 0.00 0.00 38 1010.4
20260508000031 11 271 4.8 17.7 0.00 0.00 0.00 39 1010.4
20260507235514 12 270 4.8 19.3 0.00 0.00 0.00 38 1010.4
20260507235003 12 283 8.0 27.4 0.00 0.00 0.00 38 1010.4
20260507234515 12 284 11.3 27.4 0.00 0.00 0.00 38 1010.3
20260507234008 12 309 4.8 19.3 0.00 0.00 0.00 39 1010.3
20260507233507 12 275 4.8 19.3 0.00 0.00 0.00 38 1010.3
20260507233024 12 269 11.3 19.3 0.00 0.00 0.00 37 1010.3
20260507232508 12 267 4.8 19.3 0.00 0.00 0.00 38 1010.3
20260507232018 12 285 8.0 20.9 0.00 0.00 0.00 38 1010.3
20260507231531 12 292 8.0 20.9 0.00 0.00 0.00 38 1010.3
20260507231007 12 257 9.7 22.5 0.00 0.00 0.00 38 1010.3
20260507230507 12 278 12.9 27.4 0.00 0.00 0.00 37 1010.4
20260507230032 12 235 11.3 27.4 0.00 0.00 0.00 37 1010.4
20260507225508 13 252 11.3 22.5 0.00 0.00 0.00 37 1010.4
20260507225007 13 300 8.0 20.9 0.00 0.00 0.00 37 1010.5
20260507224508 13 271 11.3 17.7 0.00 0.00 0.00 37 1010.6
20260507224003 12 257 8.0 20.9 0.00 0.00 0.00 38 1010.7
20260507223504 12 252 11.3 20.9 0.00 0.00 0.00 36 1010.6
20260507223019 13 300 8.0 19.3 0.00 0.00 0.00 37 1010.6
20260507222509 12 277 6.4 19.3 0.00 0.00 0.00 38 1010.6
20260507222006 12 229 9.7 24.1 0.00 0.00 0.00 37 1010.7
20260507221522 12 290 6.4 24.1 0.00 0.00 0.00 36 1010.6
20260507221008 13 267 12.9 22.5 0.00 0.00 0.00 36 1010.7
20260507220503 13 294 11.3 22.5 0.00 0.00 0.00 35 1010.7